period_start,C,m1,H,J0,J1,J2,J3,J4,J5,JA,JB,JC,JD,JJ,JK,JN,#
2016-11-29 00:04:27,0.01,6.46,0.00,21.21,25.92,29.57,14.93,51.33,1027.87,2029.05,1720.92,1837.91,2078.00,600.07,606.48,36.02,0000 0000 0000 0000 000000
2016-11-29 00:09:29,0.03,6.46,0.00,21.21,25.92,29.59,14.90,51.33,1027.86,2029.06,1720.46,1837.65,2077.99,600.26,606.57,36.07,0000 0000 0000 0000 000000
2016-11-29 00:14:30,0.04,6.47,0.00,21.19,25.92,29.58,14.93,51.36,1027.85,2029.08,1720.13,1837.26,2077.98,600.04,606.33,36.12,0000 0000 0000 0000 000000
2016-11-29 00:19:31,0.02,6.47,0.00,21.21,25.92,29.59,14.98,51.36,1027.85,2029.16,1720.03,1837.08,2077.96,600.04,606.33,36.17,0000 0000 0000 0000 000000
2016-11-29 00:24:33,0.01,6.47,0.00,21.22,25.92,29.59,14.89,51.28,1027.85,2029.13,1720.00,1837.02,2077.56,600.19,606.51,36.22,0000 0000 0000 0000 000000
2016-11-29 00:29:34,0.03,6.47,0.00,21.18,25.91,29.59,14.87,51.43,1027.85,2029.26,1719.99,1837.00,2077.13,599.54,605.91,36.27,0000 0000 0000 0000 000000
2016-11-29 00:34:35,-0.01,6.47,0.00,21.17,25.90,29.60,14.89,51.30,1027.85,2029.33,1719.99,1837.00,2077.03,600.13,606.34,36.32,0000 0000 0000 0000 000000
2016-11-29 00:39:37,0.01,6.47,0.00,21.16,25.90,29.58,14.95,51.28,1027.84,2029.22,1719.77,1836.99,2077.00,600.03,606.41,36.37,0000 0000 0000 0000 000000
2016-11-29 00:44:38,0.02,6.47,0.00,21.15,25.90,29.58,14.93,51.34,1027.80,2029.15,1719.14,1836.94,2076.99,600.03,606.40,36.42,0000 0000 0000 0000 000000
2016-11-29 00:49:39,0.02,6.47,0.00,21.12,25.88,29.58,14.90,51.36,1027.80,2029.15,1719.00,1836.76,2076.92,600.09,606.52,36.48,0000 0000 0000 0000 000000
2016-11-29 00:54:41,0.04,6.48,0.00,21.12,25.87,29.57,14.86,51.45,1027.81,2029.25,1719.00,1836.34,2076.69,600.12,606.54,36.53,0000 0000 0000 0000 000000
2016-11-29 00:59:42,0.06,6.48,0.00,21.12,25.87,29.57,14.88,51.25,1027.84,2029.47,1718.97,1836.13,2076.20,599.65,606.18,36.58,0000 0000 0000 0000 000000
2016-11-29 01:04:43,0.03,6.48,0.00,21.11,25.86,29.56,14.93,51.36,1027.85,2029.57,1718.72,1836.03,2076.03,600.31,606.82,36.63,0000 0000 0000 0000 000000
2016-11-29 01:09:44,0.05,6.48,0.00,21.07,25.85,29.54,14.91,51.19,1027.84,2029.78,1718.14,1836.01,2076.00,600.25,606.74,36.68,0000 0000 0000 0000 000000
2016-11-29 01:14:45,0.01,6.48,0.00,21.08,25.85,29.54,14.91,51.31,1027.83,2029.88,1718.01,1836.00,2076.00,600.11,606.79,36.73,0000 0000 0000 0000 000000
2016-11-29 01:19:47,0.00,6.48,0.00,21.06,25.82,29.53,14.91,51.36,1027.81,2029.88,1718.00,1836.00,2075.99,599.85,606.38,36.78,0000 0000 0000 0000 000000
2016-11-29 01:24:48,0.01,6.48,0.00,21.07,25.82,29.50,14.86,51.21,1027.82,2029.89,1717.99,1835.99,2075.96,600.14,606.74,36.83,0000 0000 0000 0000 000000
2016-11-29 01:29:49,0.01,6.49,0.00,21.06,25.81,29.53,14.79,51.15,1027.82,2029.92,1717.93,1835.99,2075.90,599.80,606.45,36.88,0000 0000 0000 0000 000000
2016-11-29 01:34:50,0.05,6.49,0.00,21.05,25.80,29.51,14.93,51.40,1027.84,2029.93,1717.42,1835.89,2075.46,599.96,606.67,36.93,0000 0000 0000 0000 000000
2016-11-29 01:39:51,0.04,6.49,0.00,21.05,25.80,29.48,14.94,51.44,1027.82,2029.98,1717.03,1835.61,2075.10,600.23,606.75,36.98,0000 0000 0000 0000 000000
2016-11-29 01:44:52,0.02,6.49,0.00,21.03,25.79,29.48,14.89,51.34,1027.75,2029.98,1717.00,1835.19,2075.02,600.06,606.73,37.03,0000 0000 0000 0000 000000
2016-11-29 01:49:53,0.00,6.49,0.00,21.04,25.77,29.46,14.90,51.37,1027.68,2029.98,1717.00,1835.05,2075.00,599.92,606.51,37.08,0000 0000 0000 0000 000000
2016-11-29 01:54:55,-0.00,6.49,0.00,21.05,25.77,29.44,14.95,51.40,1027.67,2029.99,1717.00,1835.03,2075.00,599.97,606.48,37.13,0000 0000 0000 0000 000000
2016-11-29 01:59:56,0.00,6.49,0.00,21.03,25.77,29.46,14.90,51.37,1027.55,2029.99,1716.97,1835.00,2074.98,599.94,606.42,37.18,0000 0000 0000 0000 000000
2016-11-29 02:04:57,0.02,6.49,0.00,21.01,25.75,29.47,14.89,51.28,1027.54,2029.99,1716.59,1835.00,2074.91,599.82,606.36,37.23,0000 0000 0000 0000 000000
2016-11-29 02:09:59,0.02,6.49,0.00,20.99,25.75,29.43,14.90,51.31,1027.51,2029.99,1716.13,1834.99,2074.73,600.26,606.80,37.28,0000 0000 0000 0000 000000
2016-11-29 02:15:00,0.02,6.50,0.00,21.00,25.75,29.43,14.87,51.19,1027.49,2029.99,1716.04,1834.99,2074.23,599.90,606.45,37.33,0000 0000 0000 0000 000000
2016-11-29 02:20:01,0.00,6.50,0.00,20.99,25.73,29.42,14.83,51.28,1027.46,2029.99,1716.01,1834.98,2074.03,599.97,606.41,37.38,0000 0000 0000 0000 000000
2016-11-29 02:25:02,0.00,6.50,0.00,20.95,25.72,29.44,14.88,51.32,1027.42,2029.99,1715.99,1834.91,2074.00,600.08,606.60,37.44,0000 0000 0000 0000 000000
2016-11-29 02:30:04,0.00,6.50,0.00,20.96,25.72,29.41,14.91,51.25,1027.50,2029.99,1715.99,1834.80,2074.00,599.84,606.46,37.49,0000 0000 0000 0000 000000
2016-11-29 02:35:05,0.03,6.50,0.00,20.94,25.71,29.39,14.99,51.44,1027.53,2029.99,1715.97,1834.32,2074.00,600.27,606.88,37.54,0000 0000 0000 0000 000000
2016-11-29 02:40:07,0.03,6.50,0.00,20.93,25.70,29.39,14.88,51.24,1027.49,2029.99,1715.68,1834.06,2073.98,599.76,606.37,37.59,0000 0000 0000 0000 000000
2016-11-29 02:45:08,0.02,6.50,0.00,20.91,25.69,29.39,14.97,51.21,1027.42,2029.99,1715.18,1834.03,2073.93,600.21,606.86,37.64,0000 0000 0000 0000 000000
2016-11-29 02:50:09,0.01,6.50,0.00,20.91,25.67,29.37,14.83,51.29,1027.41,2029.99,1715.04,1834.01,2073.83,599.78,606.42,37.69,0000 0000 0000 0000 000000
2016-11-29 02:55:10,0.02,6.50,0.00,20.90,25.66,29.37,14.91,51.24,1027.38,2029.99,1715.00,1834.00,2073.34,599.94,606.68,37.74,0000 0000 0000 0000 000000
2016-11-29 03:00:12,0.00,6.50,0.00,20.89,25.65,29.36,14.89,51.27,1027.39,2029.99,1715.00,1834.00,2073.09,600.02,606.68,37.79,0000 0000 0000 0000 000000
2016-11-29 03:05:13,0.00,6.50,0.00,20.87,25.63,29.35,14.87,51.27,1027.38,2029.99,1714.99,1834.00,2073.01,599.94,606.69,37.84,0000 0000 0000 0000 000000
2016-11-29 03:10:14,0.01,6.50,0.00,20.84,25.62,29.33,14.85,51.24,1027.37,2030.00,1714.88,1834.00,2073.00,599.87,606.67,37.89,0000 0000 0000 0000 000000
2016-11-29 03:15:16,0.03,6.51,0.00,20.86,25.61,29.29,14.83,51.19,1027.38,2030.01,1714.36,1833.97,2073.00,599.99,606.84,37.94,0000 0000 0000 0000 000000
2016-11-29 03:20:17,0.01,6.51,0.00,20.84,25.60,29.30,14.92,51.24,1027.38,2030.01,1714.09,1833.97,2073.00,600.03,606.78,37.99,0000 0000 0000 0000 000000
2016-11-29 03:25:18,0.01,6.51,0.00,20.81,25.57,29.29,14.95,51.34,1027.37,2030.03,1714.02,1833.94,2072.99,600.02,606.86,38.04,0000 0000 0000 0000 000000
2016-11-29 03:30:20,0.01,6.51,0.00,20.78,25.57,29.23,14.93,51.41,1027.37,2030.07,1714.00,1833.82,2072.98,600.03,606.92,38.09,0000 0000 0000 0000 000000
2016-11-29 03:35:21,0.02,6.51,0.00,20.78,25.55,29.25,14.96,51.34,1027.37,2030.06,1713.99,1833.52,2072.93,599.88,606.78,38.14,0000 0000 0000 0000 000000
2016-11-29 03:40:23,0.02,6.51,0.00,20.77,25.54,29.25,14.90,51.30,1027.37,2030.08,1713.98,1833.11,2072.80,600.10,607.07,38.20,0000 0000 0000 0000 000000
2016-11-29 03:45:24,0.07,6.51,0.00,20.74,25.52,29.22,14.98,51.38,1027.37,2030.18,1713.55,1833.03,2072.31,600.40,607.35,38.25,0000 0000 0000 0000 000000
2016-11-29 03:50:25,0.05,6.51,0.00,20.74,25.51,29.20,14.90,51.34,1027.37,2030.51,1713.27,1833.03,2072.13,600.13,607.20,38.30,0000 0000 0000 0000 000000
2016-11-29 03:55:26,0.03,6.52,0.00,20.72,25.50,29.17,14.94,51.34,1027.37,2030.61,1713.09,1833.02,2072.04,599.93,606.95,38.35,0000 0000 0000 0000 000000
2016-11-29 04:00:28,-0.00,6.52,0.00,20.71,25.48,29.17,14.91,51.21,1027.38,2030.68,1713.01,1833.00,2072.00,599.82,606.80,38.40,0000 0000 0000 0000 000000
2016-11-29 04:05:29,0.04,6.52,0.00,20.70,25.47,29.16,14.88,51.17,1027.45,2030.87,1712.99,1833.00,2072.00,599.99,607.05,38.45,0000 0000 0000 0000 000000
2016-11-29 04:10:30,0.00,6.52,0.00,20.65,25.45,29.15,14.98,51.21,1027.56,2030.97,1712.99,1833.00,2072.00,599.86,607.13,38.50,0000 0000 0000 0000 000000
2016-11-29 04:15:31,0.00,6.52,0.00,20.63,25.44,29.15,15.00,51.33,1027.46,2030.96,1712.97,1832.99,2071.98,600.33,607.58,38.55,0000 0000 0000 0000 000000
2016-11-29 04:20:33,0.01,6.52,0.00,20.62,25.42,29.11,14.86,51.32,1027.53,2030.98,1712.84,1832.99,2071.98,600.01,607.37,38.60,0000 0000 0000 0000 000000
2016-11-29 04:25:34,0.02,6.52,0.00,20.61,25.41,29.11,14.87,51.16,1027.47,2030.99,1712.52,1832.98,2071.97,600.23,607.45,38.65,0000 0000 0000 0000 000000
2016-11-29 04:30:36,0.01,6.52,0.00,20.59,25.40,29.08,14.90,51.12,1027.42,2030.99,1712.12,1832.97,2071.92,600.32,607.52,38.70,0000 0000 0000 0000 000000
2016-11-29 04:35:37,0.00,6.52,0.00,20.56,25.37,29.07,14.92,51.26,1027.38,2030.99,1712.01,1832.97,2071.78,600.26,607.54,38.75,0000 0000 0000 0000 000000
2016-11-29 04:40:38,0.02,6.52,0.00,20.55,25.36,29.02,14.88,51.24,1027.39,2031.00,1712.00,1832.89,2071.51,599.87,607.26,38.80,0000 0000 0000 0000 000000
2016-11-29 04:45:39,0.02,6.52,0.00,20.54,25.34,29.04,14.91,51.32,1027.41,2031.01,1712.00,1832.69,2071.20,599.98,607.26,38.85,0000 0000 0000 0000 000000
2016-11-29 04:50:40,0.02,6.53,0.00,20.49,25.32,29.00,14.92,51.32,1027.39,2031.02,1711.99,1832.42,2071.06,600.14,607.60,38.90,0000 0000 0000 0000 000000
2016-11-29 04:55:42,0.02,6.53,0.00,20.47,25.30,28.97,15.00,51.24,1027.48,2031.05,1711.93,1832.18,2071.03,599.78,607.34,38.95,0000 0000 0000 0000 000000
2016-11-29 05:00:43,0.04,6.53,0.00,20.43,25.28,28.93,14.94,51.19,1027.48,2031.18,1711.55,1832.08,2071.00,599.94,607.59,39.00,0000 0000 0000 0000 000000
2016-11-29 05:05:44,0.04,6.53,0.00,20.44,25.26,28.90,15.01,51.25,1027.56,2031.30,1711.13,1832.02,2071.00,600.21,607.85,39.05,0000 0000 0000 0000 000000
2016-11-29 05:10:46,0.02,6.53,0.00,20.42,25.25,28.91,14.86,51.32,1027.64,2031.45,1711.02,1832.01,2071.00,599.96,607.59,39.10,0000 0000 0000 0000 000000
2016-11-29 05:15:47,0.04,6.53,0.00,20.41,25.22,28.88,14.92,51.19,1027.57,2031.74,1711.00,1832.00,2070.99,599.76,607.40,39.15,0000 0000 0000 0000 000000
2016-11-29 05:20:48,0.02,6.53,0.00,20.38,25.20,28.87,14.85,51.27,1027.73,2031.93,1710.98,1832.00,2070.97,600.03,607.91,39.21,0000 0000 0000 0000 000000
2016-11-29 05:25:49,0.03,6.54,0.00,20.37,25.19,28.83,14.95,51.21,1027.81,2031.97,1710.71,1831.99,2070.86,599.96,607.96,39.26,0000 0000 0000 0000 000000
2016-11-29 05:30:50,0.04,6.54,0.00,20.37,25.17,28.82,14.94,51.25,1027.82,2031.98,1710.05,1831.94,2070.27,599.67,607.77,39.31,0000 0000 0000 0000 000000
2016-11-29 05:35:52,0.03,6.54,0.00,20.33,25.16,28.82,14.90,51.14,1027.81,2031.99,1710.00,1831.68,2070.02,599.88,607.95,39.36,0000 0000 0000 0000 000000
2016-11-29 05:40:53,0.03,6.54,0.00,20.29,25.15,28.78,14.96,51.18,1027.83,2031.99,1709.93,1831.10,2069.98,600.08,608.20,39.41,0000 0000 0000 0000 000000
2016-11-29 05:45:54,0.06,6.55,0.00,20.30,25.14,28.78,14.88,51.26,1027.85,2031.99,1709.15,1831.00,2069.61,599.79,608.03,39.46,0000 0000 0000 0000 000000
2016-11-29 05:50:56,0.01,6.55,0.00,20.29,25.12,28.82,14.90,51.24,1027.85,2031.99,1708.99,1830.99,2069.10,599.73,607.98,39.51,0000 0000 0000 0000 000000
2016-11-29 05:55:57,0.04,6.55,0.00,20.25,25.12,28.81,15.04,51.38,1027.85,2031.99,1708.77,1830.69,2069.01,599.95,608.24,39.56,0000 0000 0000 0000 000000
2016-11-29 06:00:58,0.08,6.55,0.00,20.23,25.11,28.77,14.92,51.36,1027.85,2032.00,1708.00,1830.03,2068.59,599.80,608.11,39.61,0000 0000 0000 0000 000000
2016-11-29 06:06:00,0.09,6.56,0.00,20.22,25.10,28.75,14.89,51.34,1027.85,2032.00,1707.13,1829.61,2068.00,599.58,607.99,39.66,0000 0000 0000 0000 000000
2016-11-29 06:11:01,0.09,6.56,0.00,20.22,25.09,28.72,14.99,51.55,1027.85,2032.00,1706.34,1829.02,2067.28,600.13,608.42,39.71,0000 0000 0000 0000 000000
2016-11-29 06:16:02,0.03,6.56,0.00,20.21,25.07,28.73,14.91,51.48,1027.85,2032.02,1705.89,1828.79,2067.00,599.77,608.08,39.76,0000 0000 0000 0000 000000
2016-11-29 06:21:04,0.08,6.57,0.00,20.18,25.07,28.67,14.97,51.60,1027.84,2032.01,1705.23,1828.16,2066.73,599.93,608.36,39.81,0000 0000 0000 0000 000000
2016-11-29 06:26:05,0.02,6.57,0.00,20.16,25.05,28.69,14.94,51.52,1027.81,2032.02,1705.00,1828.01,2066.15,600.05,608.61,39.86,0000 0000 0000 0000 000000
2016-11-29 06:31:07,0.00,6.57,0.00,20.14,25.05,28.65,14.88,51.48,1027.76,2032.04,1704.99,1828.00,2066.04,599.28,607.79,39.91,0000 0000 0000 0000 000000
2016-11-29 06:36:08,0.02,6.57,0.00,20.17,25.02,28.64,14.95,51.53,1027.83,2032.14,1704.98,1828.00,2066.01,599.78,608.20,39.96,0000 0000 0000 0000 000000
2016-11-29 06:41:09,0.03,6.57,0.00,20.15,25.01,28.64,15.01,51.60,1027.85,2032.09,1704.57,1827.94,2065.88,599.95,608.42,40.01,0000 0000 0000 0000 000000
2016-11-29 06:46:10,0.09,6.58,0.00,20.14,25.00,28.64,14.99,51.58,1027.85,2032.09,1704.02,1827.31,2065.12,599.95,608.28,40.07,0000 0000 0000 0000 000000
2016-11-29 06:51:12,0.05,6.58,0.00,20.10,24.98,28.65,14.94,51.60,1027.86,2032.15,1703.65,1827.01,2064.97,600.06,608.77,40.12,0000 0000 0000 0000 000000
2016-11-29 06:56:13,0.07,6.58,0.00,20.11,24.97,28.59,14.96,51.63,1027.86,2032.22,1702.97,1826.72,2064.28,599.83,608.39,40.17,0000 0000 0000 0000 000000
2016-11-29 07:01:15,0.10,6.59,0.00,20.09,24.96,28.60,15.01,51.54,1027.86,2032.37,1702.18,1826.05,2064.01,600.09,608.69,40.22,0000 0000 0000 0000 000000
2016-11-29 07:06:16,0.05,6.59,0.00,20.10,24.95,28.58,14.95,51.52,1027.86,2032.72,1701.98,1826.00,2063.93,600.06,608.69,40.27,0000 0000 0000 0000 000000
2016-11-29 07:11:17,0.08,6.60,0.00,20.08,24.94,28.58,14.88,51.52,1027.86,2032.90,1701.27,1825.93,2063.26,599.85,608.46,40.32,0000 0000 0000 0000 000000
2016-11-29 07:16:18,0.05,6.60,0.00,20.08,24.92,28.57,14.93,51.52,1027.87,2032.94,1700.99,1825.27,2063.00,599.55,608.18,40.37,0000 0000 0000 0000 000000
2016-11-29 07:21:20,0.04,6.60,0.00,20.07,24.91,28.56,14.93,51.58,1027.86,2032.95,1700.49,1825.00,2062.96,599.58,608.40,40.42,0000 0000 0000 0000 000000
2016-11-29 07:26:21,0.04,6.60,0.00,20.05,24.90,28.52,14.92,51.59,1027.86,2032.98,1700.07,1824.99,2062.20,599.95,608.71,40.47,0000 0000 0000 0000 000000
2016-11-29 07:31:23,0.08,6.61,0.00,20.03,24.89,28.49,14.97,51.72,1027.86,2032.97,1699.61,1824.38,2061.94,599.82,608.55,40.52,0000 0000 0000 0000 000000
2016-11-29 07:36:24,0.05,6.61,0.00,20.03,24.87,28.46,14.91,51.61,1027.85,2032.97,1699.01,1824.00,2061.19,599.86,608.78,40.57,0000 0000 0000 0000 000000
2016-11-29 07:41:25,0.07,6.61,0.00,19.98,24.86,28.49,14.93,51.72,1027.87,2032.98,1698.31,1823.76,2060.99,599.83,608.50,40.62,0000 0000 0000 0000 000000
2016-11-29 07:46:27,0.12,6.62,0.00,19.97,24.85,28.44,14.93,51.77,1027.89,2032.98,1697.32,1822.91,2060.22,600.08,608.93,40.67,0000 0000 0000 0000 000000
2016-11-29 07:51:28,0.16,6.63,0.00,19.96,24.82,28.44,14.99,51.71,1027.88,2032.99,1695.89,1822.00,2059.18,600.37,609.29,40.72,0000 0000 0000 0000 000000
2016-11-29 07:56:30,0.14,6.63,0.00,19.95,24.81,28.39,14.94,51.61,1027.86,2032.99,1694.72,1821.11,2058.24,599.98,608.87,40.77,0000 0000 0000 0000 000000
2016-11-29 08:01:31,0.12,6.64,0.00,19.93,24.80,28.42,14.98,51.60,1027.87,2032.99,1693.74,1820.45,2057.51,600.23,609.05,40.82,0000 0000 0000 0000 000000
2016-11-29 08:06:32,0.05,6.65,0.00,19.94,24.78,28.38,14.90,51.52,1027.85,2033.00,1692.90,1819.98,2056.96,599.85,608.68,40.87,0000 0000 0000 0000 000000
2016-11-29 08:11:34,0.12,6.65,0.00,19.93,24.77,28.40,14.93,51.55,1027.85,2033.01,1692.06,1819.35,2056.19,599.60,608.50,40.92,0000 0000 0000 0000 000000
2016-11-29 08:16:35,0.05,6.65,0.00,19.90,24.75,28.37,14.98,51.49,1027.85,2033.01,1691.31,1818.99,2055.97,600.05,609.08,40.97,0000 0000 0000 0000 000000
2016-11-29 08:21:37,0.12,6.66,0.00,19.90,24.73,28.38,14.95,51.59,1027.85,2033.02,1690.54,1818.40,2055.19,599.83,608.78,41.03,0000 0000 0000 0000 000000
2016-11-29 08:26:38,0.03,6.66,0.00,19.91,24.72,28.35,15.03,51.50,1027.85,2033.07,1689.97,1818.00,2054.92,600.38,609.35,41.08,0000 0000 0000 0000 000000
2016-11-29 08:31:39,0.14,6.67,0.00,19.89,24.70,28.32,14.91,51.55,1027.85,2033.17,1689.14,1817.55,2054.15,599.81,608.82,41.13,0000 0000 0000 0000 000000
2016-11-29 08:36:41,0.11,6.67,0.00,19.88,24.70,28.31,14.89,51.63,1027.86,2033.47,1688.40,1817.00,2053.82,599.92,609.05,41.18,0000 0000 0000 0000 000000
2016-11-29 08:41:42,0.09,6.68,0.00,19.87,24.67,28.33,14.94,51.60,1027.85,2033.56,1687.70,1816.53,2053.05,599.97,609.06,41.23,0000 0000 0000 0000 000000
2016-11-29 08:46:43,0.07,6.68,0.00,19.86,24.66,28.30,14.95,51.67,1027.85,2033.80,1687.02,1816.02,2052.96,599.92,609.03,41.28,0000 0000 0000 0000 000000
2016-11-29 08:51:45,0.04,6.69,0.00,19.86,24.65,28.27,14.93,51.62,1027.86,2033.93,1686.86,1815.99,2052.38,600.19,609.20,41.33,0000 0000 0000 0000 000000
2016-11-29 08:56:46,0.06,6.69,0.00,19.85,24.64,28.28,15.05,51.66,1027.88,2033.92,1686.10,1815.74,2052.00,599.94,609.11,41.38,0000 0000 0000 0000 000000
2016-11-29 09:01:48,0.08,6.69,0.00,19.84,24.62,28.29,14.94,51.82,1027.86,2033.97,1685.78,1815.04,2051.60,600.00,609.18,41.43,0000 0000 0000 0000 000000
2016-11-29 09:06:49,0.05,6.70,0.00,19.83,24.61,28.27,14.96,51.81,1027.85,2033.98,1685.01,1814.91,2051.02,599.87,609.04,41.48,0000 0000 0000 0000 000000
2016-11-29 09:11:50,0.08,6.70,0.00,19.81,24.60,28.25,15.02,51.77,1027.86,2033.99,1684.45,1814.24,2051.00,600.25,609.48,41.53,0000 0000 0000 0000 000000
2016-11-29 09:16:51,0.01,6.70,0.00,19.80,24.58,28.20,14.94,51.76,1027.87,2033.99,1684.02,1814.03,2050.87,599.85,608.93,41.58,0000 0000 0000 0000 000000
2016-11-29 09:21:53,0.05,6.70,0.00,19.79,24.56,28.20,14.95,51.77,1027.86,2033.99,1683.73,1814.00,2050.10,600.00,609.28,41.63,0000 0000 0000 0000 000000
2016-11-29 09:26:54,0.02,6.71,0.00,19.78,24.55,28.16,14.98,51.73,1027.88,2033.99,1683.08,1813.97,2050.00,599.94,609.25,41.68,0000 0000 0000 0000 000000
2016-11-29 09:31:56,0.02,6.71,0.00,19.77,24.52,28.19,15.03,51.79,1027.94,2034.00,1682.99,1813.73,2049.99,600.24,609.62,41.73,0000 0000 0000 0000 000000
2016-11-29 09:36:57,0.08,6.71,0.00,19.75,24.51,28.13,14.99,51.67,1027.90,2034.00,1682.61,1813.10,2049.56,600.08,609.36,41.78,0000 0000 0000 0000 000000
2016-11-29 09:41:58,0.03,6.71,0.00,19.73,24.50,28.12,14.93,51.67,1027.99,2034.02,1682.03,1813.00,2049.02,599.97,609.48,41.83,0000 0000 0000 0000 000000
2016-11-29 09:47:00,0.03,6.71,0.00,19.70,24.48,28.15,15.04,51.59,1027.94,2034.03,1681.73,1812.95,2048.99,600.65,610.14,41.89,0000 0000 0000 0000 000000
2016-11-29 09:52:01,0.10,6.72,0.00,19.71,24.47,28.14,14.95,51.60,1028.03,2034.03,1681.04,1812.32,2048.42,599.92,609.44,41.94,0000 0000 0000 0000 000000
2016-11-29 09:57:03,0.05,6.72,0.00,19.71,24.46,28.15,15.03,51.60,1027.95,2034.01,1680.44,1812.00,2048.00,600.40,609.77,41.99,0000 0000 0000 0000 000000
2016-11-29 10:02:04,0.08,6.72,0.00,19.71,24.45,28.10,15.04,51.64,1028.00,2034.05,1679.73,1811.81,2047.51,600.03,609.57,42.04,0000 0000 0000 0000 000000
2016-11-29 10:07:05,0.11,6.73,0.00,19.70,24.44,28.11,15.03,51.66,1027.99,2034.13,1678.70,1811.06,2047.01,600.10,609.61,42.09,0000 0000 0000 0000 000000
2016-11-29 10:12:07,0.13,6.74,0.00,19.69,24.42,28.09,14.93,51.74,1027.98,2034.20,1677.56,1810.49,2046.51,600.07,609.57,42.14,0000 0000 0000 0000 000000
2016-11-29 10:17:08,0.12,6.74,0.00,19.67,24.42,28.09,14.92,51.63,1027.90,2034.33,1676.57,1809.77,2045.71,599.58,609.07,42.19,0000 0000 0000 0000 000000
2016-11-29 10:22:09,0.13,6.75,0.00,19.66,24.40,28.10,14.96,51.77,1027.93,2034.44,1675.59,1809.03,2045.02,600.14,609.74,42.24,0000 0000 0000 0000 000000
2016-11-29 10:27:10,0.12,6.76,0.00,19.66,24.40,28.09,15.01,51.89,1027.90,2034.78,1674.87,1808.74,2044.30,600.18,609.75,42.29,0000 0000 0000 0000 000000
2016-11-29 10:32:12,0.06,6.76,0.00,19.64,24.39,28.07,14.93,51.79,1027.94,2034.83,1674.03,1808.03,2043.87,599.53,609.17,42.34,0000 0000 0000 0000 000000
2016-11-29 10:37:13,0.13,6.77,0.00,19.61,24.37,28.06,14.99,51.69,1027.98,2034.85,1673.12,1807.51,2043.06,599.84,609.67,42.39,0000 0000 0000 0000 000000
2016-11-29 10:42:14,0.09,6.77,0.00,19.62,24.37,28.03,14.95,51.68,1027.93,2034.93,1672.23,1807.00,2042.66,600.08,609.80,42.44,0000 0000 0000 0000 000000
2016-11-29 10:47:15,0.10,6.78,0.00,19.61,24.35,28.04,14.99,51.72,1027.89,2034.96,1671.40,1806.45,2042.02,600.18,609.76,42.49,0000 0000 0000 0000 000000
2016-11-29 10:52:17,0.09,6.78,0.00,19.59,24.35,28.02,14.93,51.59,1027.87,2034.98,1670.44,1805.99,2041.36,599.92,609.67,42.54,0000 0000 0000 0000 000000
2016-11-29 10:57:18,0.08,6.79,0.00,19.59,24.33,28.02,14.99,51.66,1027.87,2034.98,1669.66,1805.38,2040.99,599.90,609.55,42.59,0000 0000 0000 0000 000000
2016-11-29 11:02:19,0.06,6.79,0.00,19.57,24.32,27.99,14.94,51.75,1027.89,2034.99,1668.98,1805.01,2040.45,599.62,609.39,42.64,0000 0000 0000 0000 000000
2016-11-29 11:07:20,0.12,6.80,0.00,19.57,24.32,28.03,14.98,51.67,1027.86,2034.99,1667.94,1804.63,2039.81,599.79,609.43,42.69,0000 0000 0000 0000 000000
2016-11-29 11:12:22,0.22,6.81,0.00,19.57,24.30,28.01,15.00,51.66,1027.87,2034.99,1666.16,1803.34,2038.54,600.17,609.93,42.74,0000 0000 0000 0000 000000
2016-11-29 11:17:23,0.16,6.82,0.00,19.57,24.30,28.01,14.90,51.51,1027.88,2034.99,1664.72,1802.26,2037.37,600.11,609.81,42.80,0000 0000 0000 0000 000000
2016-11-29 11:22:24,0.11,6.82,0.00,19.57,24.29,27.96,14.96,51.65,1027.87,2034.99,1663.64,1801.70,2036.75,599.92,609.58,42.85,0000 0000 0000 0000 000000
2016-11-29 11:27:25,0.06,6.83,0.00,19.54,24.27,27.97,15.01,51.73,1027.88,2035.00,1662.89,1801.02,2036.03,599.88,609.70,42.90,0000 0000 0000 0000 000000
2016-11-29 11:32:27,0.05,6.83,0.00,19.54,24.27,27.92,14.98,51.61,1027.90,2035.00,1662.08,1800.93,2035.85,599.77,609.51,42.95,0000 0000 0000 0000 000000
2016-11-29 11:37:28,0.10,6.83,0.00,19.52,24.27,27.95,14.92,51.76,1028.06,2035.00,1661.72,1800.27,2035.11,599.47,609.36,43.00,0000 0000 0000 0000 000000
2016-11-29 11:42:29,0.03,6.84,0.00,19.50,24.25,27.94,14.99,51.70,1028.06,2035.01,1661.04,1800.00,2034.99,600.03,609.93,43.05,0000 0000 0000 0000 000000
2016-11-29 11:47:31,0.04,6.84,0.00,19.51,24.25,27.94,15.01,51.78,1028.05,2035.00,1660.74,1799.93,2034.45,599.72,609.80,43.10,0000 0000 0000 0000 000000
2016-11-29 11:52:32,0.09,6.84,0.00,19.48,24.24,27.97,14.97,51.67,1028.22,2035.00,1659.93,1799.15,2033.99,600.06,610.15,43.15,0000 0000 0000 0000 000000
2016-11-29 11:57:33,0.11,6.85,0.00,19.45,24.22,27.91,15.02,51.68,1028.13,2035.00,1658.94,1798.80,2033.21,600.24,610.40,43.20,0000 0000 0000 0000 000000
2016-11-29 12:02:35,0.12,6.85,0.00,19.49,24.22,27.89,15.00,51.72,1027.97,2035.03,1657.86,1798.04,2032.68,599.93,609.84,43.25,0000 0000 0000 0000 000000
2016-11-29 12:07:36,0.12,6.86,0.00,19.48,24.20,27.89,15.00,51.70,1027.89,2035.04,1656.82,1797.35,2031.95,599.92,609.76,43.30,0000 0000 0000 0000 000000
2016-11-29 12:12:37,0.18,6.87,0.00,19.45,24.20,27.92,14.91,51.65,1027.91,2035.05,1655.46,1796.52,2030.87,599.39,609.35,43.35,0000 0000 0000 0000 000000
2016-11-29 12:17:38,0.21,6.88,0.00,19.43,24.17,27.85,14.96,51.62,1027.99,2035.13,1653.76,1795.53,2029.67,600.08,610.14,43.40,0000 0000 0000 0000 000000
2016-11-29 12:22:40,0.20,6.89,0.00,19.43,24.17,27.89,15.04,51.73,1028.12,2035.14,1651.81,1794.20,2028.26,600.00,610.18,43.45,0000 0000 0000 0000 000000
2016-11-29 12:27:41,0.19,6.90,0.00,19.41,24.15,27.81,14.99,51.80,1028.12,2035.33,1650.06,1793.11,2027.20,599.80,610.01,43.50,0000 0000 0000 0000 000000
2016-11-29 12:32:42,0.27,6.91,0.00,19.41,24.13,27.81,14.98,51.77,1028.14,2035.58,1648.29,1792.00,2025.87,599.99,610.26,43.55,0000 0000 0000 0000 000000
2016-11-29 12:37:44,0.32,6.93,0.00,19.41,24.12,27.81,14.96,51.77,1028.00,2035.86,1645.80,1790.44,2024.10,600.51,610.61,43.60,0000 0000 0000 0000 000000
2016-11-29 12:42:45,0.29,6.94,0.00,19.38,24.11,27.81,15.03,51.77,1028.07,2035.92,1643.42,1788.70,2022.22,600.18,610.39,43.65,0000 0000 0000 0000 000000
2016-11-29 12:47:46,0.10,6.95,0.00,19.40,24.10,27.79,15.02,51.78,1028.02,2035.93,1642.07,1787.98,2021.05,599.90,610.13,43.70,0000 0000 0000 0000 000000
2016-11-29 12:52:48,0.11,6.96,0.00,19.40,24.08,27.78,15.02,51.83,1028.00,2035.86,1641.16,1787.23,2020.48,600.14,610.26,43.76,0000 0000 0000 0000 000000
2016-11-29 12:57:49,0.08,6.96,0.00,19.38,24.07,27.74,15.00,51.85,1028.04,2035.94,1640.23,1786.97,2020.01,600.11,610.30,43.81,0000 0000 0000 0000 000000